[[{"header":{"parameterUnit":"m.s-1","parameterCategory":1,"la1":30.2991,"la2":30.254,"lo1":-89.0895,"lo2":-89.0444,"dy":0.0017,"dx":0.0017,"nx":28,"ny":28,"refTime":"2024-04-24T09:00:00:Z","depth":0,"parameterNumber":2,"parameterNumberName":"U-component_of_WINDS"},"data":[0,0,0,0,0,0,0,0,0,0,0,0,0,0,0,0,0,0,0,0,0,0,0,0,0,0,0,0,0,0,0,0,0,0,0,0,0,0,0,0,0,0,0,0,0,0,0,0,0,0,0,0,0,0,0,0,0,0,0.4831,0.4831,0,0.4808,0.4808,0.4808,0.481,0.481,0.4811,0.4811,0.4786,0.4785,0.4785,0,0,0,0,0,0,0,0,0,0,0,0,0,0.4873,0.4873,0.4831,0.4831,0.4831,0.4808,0.4808,0.4808,0.481,0.481,0.4811,0.4811,0.4787,0.4786,0.4784,0,0,0,0,0,0,0,0,0,0,0,0,0,0.4853,0.4872,0.4831,0.4829,0.4829,0.4808,0.4808,0.4808,0.481,0.481,0.4811,0.4812,0.4787,0.4786,0.4784,0.4764,0,0,0.478,0.4779,0,0,0,0,0,0,0,0,0.4854,0.4852,0.483,0.4829,0.4829,0.4813,0.4814,0.4793,0.481,0.4817,0.4811,0.4812,0.4795,0.4793,0.4787,0.4763,0.4762,0.478,0.4779,0.4778,0.4778,0,0,0,0,0,0,0,0.4856,0.4853,0.4822,0.4829,0.4829,0.4828,0.4826,0.481,0.4803,0.4816,0.4817,0.4814,0.4794,0.4788,0.4786,0.4762,0.478,0.4778,0.4777,0.4777,0.4716,0.4716,0,0,0,0,0,0,0.4858,0.4854,0.4823,0.4821,0.4843,0.4827,0.4824,0.4817,0.4803,0.4802,0.4813,0.4814,0.4791,0.4788,0.4786,0.4759,0.4778,0.4777,0.4776,0.4717,0.4716,0.4716,0,0,0,0,0,0,0.4859,0.4855,0.4824,0.4838,0.4834,0.4826,0.4818,0.4816,0.4811,0.4801,0.48,0.4809,0.4791,0.4788,0.4769,0.4758,0.4776,0.4775,0.4718,0.4717,0.4716,0.4707,0,0,0,0,0,0,0.486,0.4856,0.4849,0.4837,0.4833,0.4808,0.4817,0.4816,0.4808,0.4809,0.4796,0.4795,0.4791,0.4771,0.4767,0.4756,0.4773,0.4719,0.4718,0.4716,0.4708,0.4705,0.4703,0,0,0,0,0,0.4862,0.4848,0.4849,0.4845,0.4824,0.4808,0.4805,0.4802,0.4807,0.48,0.4793,0.4795,0.476,0.4769,0.4765,0.4753,0.472,0.4718,0.4716,0.4709,0.4706,0.4703,0,0,0,0,0,0,0.4858,0.4846,0.4847,0.4829,0.4819,0.4808,0.4799,0.4799,0.4787,0.4788,0.4784,0.4782,0.4762,0.4756,0.4766,0.4732,0.474,0.4738,0.4736,0.4733,0.4731,0.4732,0.4772,0,0,0,0,0,0.4855,0.4844,0.4834,0.4819,0.4814,0.4807,0.48,0.4798,0.4787,0.4783,0.4775,0.4764,0.4751,0.4742,0.4729,0.4707,0.4703,0.4697,0.4695,0.4693,0.469,0.4675,0.4671,0.471,0.471,0.471,0,0,0.4849,0.4841,0.4834,0.4818,0.481,0.4796,0.4804,0.479,0.4779,0.4781,0.4762,0.4756,0.4743,0.4722,0.4712,0.4716,0.4679,0.4691,0.4689,0.4688,0.4673,0.4669,0.4666,0.4709,0.4709,0.471,0,0,0.4831,0.4825,0.4811,0.4802,0.479,0.4785,0.4782,0.477,0.4765,0.4747,0.4747,0.4733,0.4711,0.4701,0.4693,0.4668,0.4668,0.4664,0.4652,0.4637,0.4634,0.4631,0.4619,0.4616,0.4662,0.4662,0.4662,0,0.4825,0.4806,0.4803,0.4788,0.478,0.478,0.4764,0.4756,0.474,0.4734,0.4739,0.4708,0.47,0.4675,0.4668,0.4663,0.4657,0.4665,0.4635,0.4632,0.4629,0.4618,0.4614,0.4661,0.4661,0.4661,0.4661,0,0.4798,0.4784,0.4774,0.4758,0.4748,0.4733,0.4726,0.4717,0.4715,0.4709,0.4688,0.4678,0.4661,0.4655,0.4654,0.4629,0.4632,0.4636,0.4644,0.4625,0.4614,0.461,0.466,0.466,0.466,0.4661,0,0,0.4778,0.4759,0.4755,0.4746,0.4732,0.4721,0.4704,0.4688,0.4679,0.4667,0.4652,0.4631,0.4634,0.4625,0.4622,0.4609,0.4586,0.4614,0.4614,0.4607,0.4555,0.455,0.4546,0.4587,0.4586,0.4585,0.4555,0,0.4757,0.4729,0.4724,0.4699,0.4685,0.4684,0.4669,0.4657,0.4651,0.4636,0.4629,0.4613,0.4619,0.4613,0.4601,0.4592,0.4575,0.4594,0.457,0.457,0.4572,0.4541,0.4537,0.4509,0.4551,0.455,0.455,0,0.4729,0.4716,0.4689,0.4673,0.4667,0.4654,0.4637,0.4625,0.461,0.4606,0.4594,0.4592,0.4573,0.4583,0.4555,0.4568,0.4557,0.4551,0.455,0.4546,0.4558,0.4534,0.45,0.4495,0.4544,0.4544,0.4545,0,0.4715,0.469,0.467,0.4663,0.4645,0.4636,0.4628,0.4614,0.4604,0.4588,0.4581,0.4564,0.4554,0.454,0.4532,0.4541,0.4504,0.4514,0.4498,0.4498,0.4489,0.449,0.4451,0.4486,0.4486,0.4486,0.4486,0,0.4691,0.4674,0.4663,0.4651,0.463,0.4624,0.4604,0.4596,0.4583,0.4568,0.4566,0.4551,0.4543,0.4526,0.452,0.4496,0.4492,0.4486,0.4485,0.4486,0.4486,0.4478,0.4479,0.4485,0.4485,0.4485,0.4485,0,0.4672,0.4664,0.4642,0.4626,0.4621,0.4607,0.4592,0.4579,0.4572,0.4552,0.4546,0.4534,0.4514,0.4505,0.4481,0.4476,0.4448,0.4449,0.4453,0.4452,0.4435,0.4436,0.4388,0.438,0.4423,0.4422,0.4422,0,0.4657,0.4643,0.4625,0.4615,0.4606,0.459,0.4578,0.4571,0.4559,0.454,0.4528,0.4508,0.4491,0.4458,0.4447,0.4427,0.4426,0.441,0.4423,0.4423,0.4422,0.4422,0.442,0.4408,0.4407,0.4407,0.4407,0,0.463,0.4626,0.461,0.4592,0.4578,0.4564,0.455,0.4541,0.4531,0.4517,0.4496,0.4483,0.4457,0.4435,0.4414,0.4404,0.4402,0.4403,0.4397,0.4398,0.4399,0.4395,0.4444,0.4404,0.4404,0.4404,0.4404,0.4405,0.4611,0.4597,0.4582,0.4563,0.4552,0.4537,0.4523,0.4513,0.4496,0.4474,0.447,0.4447,0.443,0.4401,0.439,0.437,0.4374,0.4367,0.4365,0.4363,0.436,0.4404,0.4367,0.4367,0.4367,0.4367,0.4367,0,0.4582,0.4571,0.4554,0.4533,0.4518,0.4518,0.4501,0.4488,0.4468,0.4452,0.4435,0.4409,0.4388,0.4373,0.4351,0.4338,0.4336,0.4332,0.4332,0.4329,0.436,0.4366,0.4333,0.4333,0.4333,0.4333,0.4333,0.4333,0.4565,0.4542,0.4535,0.4505,0.4494,0.4471,0.4461,0.4447,0.4434,0.4405,0.4387,0.4378,0.4362,0.4337,0.4317,0.4313,0.4303,0.4299,0.4294,0.4324,0.4327,0.433,0.4335,0.4297,0.4297,0.4264,0.4264,0.4264]},{"header":{"parameterUnit":"m.s-1","parameterCategory":1,"la1":30.2991,"la2":30.254,"lo1":-89.0895,"lo2":-89.0444,"dy":0.0017,"dx":0.0017,"nx":28,"ny":28,"refTime":"2024-04-24T09:00:00:Z","depth":0,"parameterNumber":3,"parameterNumberName":"V-component_of_WINDS"},"data":[0,0,0,0,0,0,0,0,0,0,0,0,0,0,0,0,0,0,0,0,0,0,0,0,0,0,0,0,0,0,0,0,0,0,0,0,0,0,0,0,0,0,0,0,0,0,0,0,0,0,0,0,0,0,0,0,0,0,3.8617,3.8616,0,3.8593,3.8593,3.8592,3.8507,3.8505,3.8504,3.8502,3.8474,3.8475,3.8477,0,0,0,0,0,0,0,0,0,0,0,0,0,3.8583,3.8584,3.8617,3.8616,3.8616,3.8593,3.8593,3.8592,3.8508,3.8505,3.8503,3.8501,3.8474,3.8475,3.8477,0,0,0,0,0,0,0,0,0,0,0,0,0,3.8582,3.8584,3.8617,3.8571,3.8567,3.8593,3.8593,3.8592,3.8508,3.8505,3.8502,3.85,3.8474,3.8475,3.8477,3.8544,0,0,3.8482,3.8482,0,0,0,0,0,0,0,0,3.8582,3.8583,3.8578,3.8574,3.857,3.855,3.8571,3.8576,3.8509,3.853,3.8502,3.8498,3.8502,3.8501,3.8503,3.8543,3.8542,3.8482,3.8483,3.8483,3.8484,0,0,0,0,0,0,0,3.8582,3.8584,3.8607,3.8578,3.8573,3.855,3.8547,3.8571,3.8532,3.8528,3.8522,3.8521,3.8499,3.8501,3.8501,3.8541,3.8482,3.8483,3.8484,3.8485,3.8629,3.8632,0,0,0,0,0,0,3.8589,3.8584,3.8608,3.8606,3.8569,3.8553,3.8549,3.8559,3.8532,3.8525,3.8523,3.8517,3.85,3.85,3.85,3.8572,3.8483,3.8485,3.8486,3.8626,3.863,3.8633,0,0,0,0,0,0,3.8589,3.8592,3.8609,3.8594,3.8594,3.8557,3.8569,3.856,3.8563,3.8528,3.852,3.8533,3.8498,3.8498,3.8533,3.857,3.8486,3.8487,3.8623,3.8627,3.8631,3.8721,0,0,0,0,0,0,3.8588,3.8593,3.862,3.8595,3.8595,3.8644,3.8571,3.8562,3.8566,3.8557,3.8535,3.8529,3.8495,3.8531,3.8534,3.8571,3.8488,3.8619,3.8625,3.863,3.8714,3.8728,3.8739,0,0,0,0,0,3.8588,3.8647,3.8622,3.8625,3.8628,3.8646,3.8646,3.8608,3.857,3.8595,3.8572,3.853,3.8567,3.8535,3.8538,3.8576,3.8617,3.8623,3.863,3.8709,3.8725,3.8739,0,0,0,0,0,0,3.8677,3.8643,3.8614,3.8668,3.8661,3.8632,3.8663,3.8627,3.863,3.8622,3.8573,3.8568,3.8609,3.8596,3.8562,3.8637,3.8584,3.8592,3.8643,3.8658,3.8671,3.8671,3.849,0,0,0,0,0,3.8703,3.8722,3.869,3.874,3.8738,3.8701,3.8708,3.8678,3.8669,3.8665,3.8645,3.8636,3.8644,3.8651,3.8658,3.8713,3.8704,3.874,3.8753,3.8763,3.8769,3.8791,3.8805,3.8654,3.8654,3.8654,0,0,3.8756,3.874,3.8755,3.8757,3.8748,3.8766,3.8699,3.8723,3.8734,3.8668,3.8698,3.8683,3.8669,3.8713,3.8731,3.8704,3.8809,3.8771,3.878,3.878,3.8799,3.8813,3.8826,3.8659,3.8658,3.8657,0,0,3.8862,3.8854,3.8891,3.8883,3.887,3.8845,3.8854,3.883,3.8817,3.8847,3.8796,3.8809,3.8827,3.8817,3.8815,3.8913,3.8873,3.8917,3.8981,3.9003,3.9015,3.9025,3.9055,3.9067,3.8924,3.8924,3.8924,0,3.8929,3.8956,3.8915,3.894,3.894,3.8882,3.8917,3.8911,3.8901,3.8901,3.8871,3.8889,3.8876,3.8914,3.8937,3.8939,3.8945,3.8918,3.9017,3.9026,3.9035,3.9063,3.9075,3.8929,3.8929,3.8928,3.8928,0,3.9037,3.9056,3.9087,3.9078,3.9082,3.9113,3.9074,3.9083,3.9053,3.903,3.9058,3.904,3.904,3.9047,3.9019,3.908,3.9062,3.9026,3.8971,3.9055,3.908,3.9091,3.8936,3.8935,3.8933,3.8932,0,0,3.9197,3.9163,3.9175,3.9167,3.9147,3.916,3.9186,3.9186,3.9192,3.9187,3.9204,3.9219,3.9183,3.9181,3.915,3.917,3.9242,3.913,3.9129,3.9147,3.9302,3.9327,3.934,3.9217,3.9219,3.922,3.9301,0,3.9293,3.9336,3.9299,3.9348,3.9361,3.9305,3.9326,3.9315,3.9294,3.9301,3.9277,3.9286,3.9241,3.9238,3.9256,3.923,3.9272,3.9224,3.9228,3.9229,3.9229,3.9354,3.9381,3.9458,3.9311,3.9313,3.9314,0,3.9411,3.9409,3.946,3.9432,3.9436,3.9457,3.9451,3.946,3.9444,3.9427,3.9422,3.9384,3.9404,3.9354,3.9378,3.9346,3.9346,3.9333,3.9335,3.933,3.9274,3.9348,3.9483,3.9493,3.933,3.9329,3.9328,0,3.9516,3.9527,3.9557,3.9553,3.9523,3.9538,3.9526,3.9508,3.9508,3.9503,3.9502,3.9499,3.9497,3.9494,3.9455,3.9423,3.9482,3.943,3.9465,3.9465,3.9477,3.9476,3.9609,3.9485,3.9485,3.9484,3.9484,0,3.9625,3.9657,3.9603,3.9621,3.9654,3.9609,3.9642,3.9624,3.9607,3.9618,3.957,3.9581,3.9531,3.9536,3.9506,3.9527,3.9528,3.9511,3.9502,3.9513,3.9515,3.9509,3.9501,3.9487,3.9487,3.9486,3.9486,0,3.9747,3.9714,3.9741,3.971,3.9702,3.9727,3.9699,3.9712,3.9687,3.9702,3.9702,3.9663,3.9665,3.9627,3.9623,3.9602,3.9635,3.9619,3.964,3.9633,3.9669,3.9664,3.9799,3.9812,3.9684,3.9686,3.9687,0,3.9817,3.9839,3.9809,3.9813,3.9803,3.9812,3.9811,3.9768,3.9769,3.975,3.9765,3.9764,3.976,3.9767,3.9736,3.9731,3.9711,3.9759,3.971,3.9719,3.9706,3.9703,3.9702,3.9768,3.9769,3.9771,3.9772,0,3.9942,3.9923,3.9925,3.992,3.9921,3.9915,3.9906,3.9912,3.9864,3.9867,3.9869,3.9866,3.9861,3.9858,3.9847,3.9832,3.9792,3.9788,3.9795,3.9804,3.9814,3.9804,3.9663,3.9784,3.9783,3.9782,3.9781,3.9781,4.0036,4.0051,4.0031,4.0034,4.0022,4.0014,4.0023,3.9999,4.0,3.9992,3.9967,3.9972,3.9951,3.9932,3.992,3.9921,3.9897,3.9909,3.991,3.9913,3.9917,3.9817,3.9919,3.9919,3.9919,3.9918,3.9918,0,4.0154,4.0138,4.0141,4.0128,4.0129,4.0094,4.0081,4.0083,4.0089,4.0073,4.007,4.007,4.0067,4.0035,4.0027,4.0034,4.0015,4.0033,4.003,4.0026,3.9942,3.9934,4.0048,4.0048,4.0048,4.0048,4.0048,4.0048,4.0215,4.0237,4.0216,4.023,4.0214,4.0219,4.0213,4.0204,4.0191,4.0193,4.019,4.0169,4.0146,4.0135,4.0129,4.012,4.0117,4.014,4.0124,4.0045,4.0032,4.002,4.0013,4.0141,4.0141,4.0207,4.0207,4.0208]}]]